Main page
METAR-TAF:

METAR-TAF

Airports :

Hermiston Municipal Airport

Hermiston, Oregon, United States

latitude: 45-49-33N, longitude: 119-15-40W, elevation: 636 ft

Current weather observation

The report was made 59 minutes ago, at 04:53 UTC
Wind 5 mph from the Northwest
Temperature 86°F
Humidity 25%
Pressure 29.88 in. Hg
Visibility: 10 miles
Clear sky

METAR: KHRI 180453Z AUTO 32004KT 10SM CLR 30/08 A2988 RMK AO2 SLP110 T03000078

Time: 22:52 (05:52 UTC)


TAF: missing

Weather observations and forecasts of more than 4000 airports (METAR and TAF reports).

The available stations are represented by yellow and red dots on the map.

Hover mouse over dot to see the name of the station.

Then click to see weather observations and forecasts.

To change the map : click on the green buttons with a black cross to zoom in, on the green button with a dash to zoom out, or on the green arrows for adjacent maps.


METAR-TAF: